[[{"header":{"parameterUnit":"m.s-1","parameterCategory":1,"la1":30.2991,"la2":30.254,"lo1":-89.0895,"lo2":-89.0444,"dy":0.0017,"dx":0.0017,"nx":28,"ny":28,"refTime":"2024-05-10T21:00:00:Z","depth":0,"parameterNumber":2,"parameterNumberName":"U-component_of_WINDS"},"data":[0,0,0,0,0,0,0,0,0,0,0,0,0,0,0,0,0,0,0,0,0,0,0,0,0,0,0,0,0,0,0,0,0,0,0,0,0,0,0,0,0,0,0,0,0,0,0,0,0,0,0,0,0,0,0,0,0,0,-1.5804,-1.5803,0,-1.573,-1.5729,-1.5728,-1.5653,-1.5652,-1.5651,-1.565,-1.5572,-1.5571,-1.557,0,0,0,0,0,0,0,0,0,0,0,0,0,-1.588,-1.5879,-1.5804,-1.5803,-1.5802,-1.573,-1.5729,-1.5728,-1.5653,-1.5652,-1.5651,-1.565,-1.5572,-1.5571,-1.5569,0,0,0,0,0,0,0,0,0,0,0,0,0,-1.583,-1.5879,-1.5804,-1.5757,-1.5752,-1.573,-1.5729,-1.5727,-1.5654,-1.5652,-1.5651,-1.5649,-1.5573,-1.5571,-1.5569,-1.5588,0,0,-1.5564,-1.5563,0,0,0,0,0,0,0,0,-1.5833,-1.5828,-1.5765,-1.576,-1.5754,-1.5699,-1.5726,-1.5681,-1.5654,-1.5691,-1.565,-1.5649,-1.5615,-1.561,-1.5599,-1.5584,-1.5581,-1.5564,-1.5563,-1.5562,-1.5561,0,0,0,0,0,0,0,-1.5837,-1.5831,-1.5775,-1.5764,-1.5757,-1.5738,-1.5729,-1.5717,-1.5662,-1.5687,-1.5682,-1.5674,-1.5612,-1.5601,-1.5597,-1.558,-1.5564,-1.5562,-1.5561,-1.556,-1.5575,-1.5577,0,0,0,0,0,0,-1.5848,-1.5834,-1.5777,-1.5772,-1.5791,-1.5738,-1.5728,-1.5718,-1.5662,-1.5652,-1.5675,-1.5671,-1.5605,-1.5599,-1.5594,-1.5611,-1.5562,-1.556,-1.5559,-1.5574,-1.5575,-1.5577,0,0,0,0,0,0,-1.585,-1.5844,-1.578,-1.5802,-1.5792,-1.5738,-1.5728,-1.5718,-1.5706,-1.5653,-1.5643,-1.5674,-1.5603,-1.5596,-1.559,-1.5607,-1.556,-1.5558,-1.5572,-1.5574,-1.5576,-1.5647,0,0,0,0,0,0,-1.5852,-1.5845,-1.5852,-1.5802,-1.5791,-1.5779,-1.5729,-1.5717,-1.5704,-1.5697,-1.5649,-1.564,-1.5602,-1.5593,-1.5588,-1.5604,-1.5557,-1.557,-1.5573,-1.5576,-1.5643,-1.5651,-1.5658,0,0,0,0,0,-1.5855,-1.5875,-1.5853,-1.5846,-1.5799,-1.578,-1.5773,-1.5729,-1.5706,-1.5712,-1.5677,-1.5641,-1.5606,-1.5593,-1.5587,-1.5603,-1.5569,-1.5572,-1.5575,-1.5639,-1.5649,-1.5658,0,0,0,0,0,0,-1.5928,-1.5867,-1.5842,-1.5847,-1.5819,-1.5767,-1.5774,-1.5742,-1.572,-1.5714,-1.566,-1.565,-1.565,-1.5625,-1.5611,-1.5617,-1.5582,-1.5585,-1.5633,-1.5642,-1.565,-1.5655,-1.5555,0,0,0,0,0,-1.5944,-1.5934,-1.5882,-1.589,-1.5878,-1.5828,-1.5818,-1.5787,-1.5755,-1.5743,-1.5708,-1.5679,-1.5661,-1.565,-1.5631,-1.5639,-1.5626,-1.5646,-1.5654,-1.5661,-1.5663,-1.5664,-1.5672,-1.5588,-1.5588,-1.5588,0,0,-1.5978,-1.5944,-1.5941,-1.5904,-1.5879,-1.5868,-1.5819,-1.581,-1.5802,-1.5742,-1.5733,-1.5707,-1.567,-1.5671,-1.5669,-1.5651,-1.5684,-1.5665,-1.5671,-1.5669,-1.5668,-1.5676,-1.5684,-1.559,-1.5589,-1.5589,0,0,-1.6034,-1.6008,-1.6011,-1.5987,-1.595,-1.5917,-1.5918,-1.5871,-1.5851,-1.5842,-1.5796,-1.5785,-1.5755,-1.5731,-1.5715,-1.5761,-1.5726,-1.5756,-1.5796,-1.5798,-1.5805,-1.581,-1.5825,-1.5832,-1.5758,-1.5758,-1.5759,0,-1.6081,-1.6064,-1.6017,-1.6011,-1.5996,-1.5941,-1.5944,-1.5922,-1.5881,-1.5871,-1.5851,-1.5812,-1.5783,-1.5777,-1.5788,-1.5777,-1.5775,-1.5761,-1.5808,-1.5813,-1.5817,-1.5831,-1.5837,-1.5762,-1.5762,-1.5761,-1.5761,0,-1.6123,-1.6112,-1.6119,-1.608,-1.6066,-1.6064,-1.6016,-1.6007,-1.5977,-1.5946,-1.5936,-1.59,-1.5872,-1.5868,-1.5838,-1.5857,-1.5846,-1.5818,-1.5782,-1.583,-1.5842,-1.5847,-1.5768,-1.5766,-1.5765,-1.5764,0,0,-1.6223,-1.6157,-1.6161,-1.6142,-1.6096,-1.6087,-1.6082,-1.6055,-1.6047,-1.602,-1.6014,-1.599,-1.5963,-1.5945,-1.5911,-1.5913,-1.595,-1.5883,-1.5882,-1.5896,-1.5967,-1.5988,-1.5996,-1.5927,-1.5928,-1.5929,-1.597,0,-1.627,-1.626,-1.6217,-1.6218,-1.6207,-1.6155,-1.615,-1.6121,-1.6092,-1.6077,-1.6044,-1.6028,-1.5994,-1.5982,-1.5981,-1.5946,-1.5963,-1.5942,-1.592,-1.592,-1.593,-1.6002,-1.6025,-1.6065,-1.5974,-1.5975,-1.5976,0,-1.6325,-1.6301,-1.6302,-1.6255,-1.6249,-1.6246,-1.6217,-1.6204,-1.617,-1.6148,-1.6127,-1.609,-1.6081,-1.6048,-1.6034,-1.6021,-1.6009,-1.599,-1.599,-1.5986,-1.595,-1.5999,-1.6077,-1.6083,-1.5983,-1.5982,-1.5982,0,-1.6397,-1.6365,-1.6361,-1.6346,-1.6292,-1.6291,-1.6269,-1.6233,-1.6219,-1.6193,-1.6183,-1.6157,-1.6143,-1.6122,-1.6079,-1.6059,-1.6069,-1.6033,-1.605,-1.6051,-1.6054,-1.6054,-1.6131,-1.6048,-1.6048,-1.6048,-1.6048,0,-1.6454,-1.6456,-1.6392,-1.639,-1.639,-1.634,-1.6342,-1.6314,-1.6282,-1.6273,-1.6225,-1.6217,-1.616,-1.6145,-1.611,-1.6103,-1.6097,-1.6079,-1.6069,-1.6082,-1.6085,-1.6073,-1.6069,-1.6049,-1.6049,-1.6049,-1.6048,0,-1.6534,-1.6492,-1.6483,-1.6433,-1.642,-1.6423,-1.6379,-1.6374,-1.6341,-1.6329,-1.6324,-1.6272,-1.6252,-1.6206,-1.6173,-1.615,-1.6151,-1.6135,-1.6163,-1.6157,-1.6176,-1.6175,-1.6248,-1.6254,-1.6169,-1.617,-1.617,0,-1.6574,-1.6574,-1.6523,-1.6514,-1.6493,-1.6478,-1.6464,-1.6415,-1.6401,-1.6361,-1.6361,-1.6337,-1.6315,-1.6284,-1.6243,-1.6217,-1.6199,-1.6227,-1.6195,-1.6208,-1.6199,-1.6199,-1.6198,-1.6234,-1.6235,-1.6236,-1.6237,0,-1.6648,-1.6626,-1.6607,-1.6581,-1.6565,-1.6542,-1.6516,-1.6511,-1.6455,-1.6442,-1.6421,-1.6404,-1.637,-1.6346,-1.6314,-1.6289,-1.6253,-1.6247,-1.6249,-1.6263,-1.6279,-1.6269,-1.6181,-1.6245,-1.6245,-1.6244,-1.6243,-1.6243,-1.6708,-1.6705,-1.6669,-1.6649,-1.6625,-1.6601,-1.6594,-1.656,-1.6542,-1.6511,-1.6483,-1.6464,-1.6428,-1.6381,-1.6358,-1.6342,-1.6324,-1.6328,-1.6329,-1.633,-1.6336,-1.6282,-1.6336,-1.6336,-1.6335,-1.6335,-1.6335,0,-1.6778,-1.6752,-1.6735,-1.67,-1.6684,-1.6653,-1.6622,-1.6611,-1.6595,-1.6564,-1.6544,-1.6518,-1.6495,-1.6452,-1.6424,-1.6419,-1.6402,-1.6414,-1.6413,-1.6408,-1.6354,-1.6354,-1.6428,-1.6428,-1.6428,-1.6428,-1.6428,-1.6428,-1.6813,-1.6807,-1.6781,-1.6762,-1.6735,-1.6717,-1.6702,-1.668,-1.6655,-1.6629,-1.661,-1.6582,-1.6546,-1.6515,-1.6491,-1.6479,-1.6471,-1.6488,-1.647,-1.642,-1.6412,-1.6403,-1.6403,-1.6486,-1.6487,-1.6525,-1.6526,-1.6526]},{"header":{"parameterUnit":"m.s-1","parameterCategory":1,"la1":30.2991,"la2":30.254,"lo1":-89.0895,"lo2":-89.0444,"dy":0.0017,"dx":0.0017,"nx":28,"ny":28,"refTime":"2024-05-10T21:00:00:Z","depth":0,"parameterNumber":3,"parameterNumberName":"V-component_of_WINDS"},"data":[0,0,0,0,0,0,0,0,0,0,0,0,0,0,0,0,0,0,0,0,0,0,0,0,0,0,0,0,0,0,0,0,0,0,0,0,0,0,0,0,0,0,0,0,0,0,0,0,0,0,0,0,0,0,0,0,0,0,-0.6729,-0.6729,0,-0.6706,-0.6706,-0.6706,-0.6654,-0.6653,-0.6652,-0.6651,-0.663,-0.663,-0.6631,0,0,0,0,0,0,0,0,0,0,0,0,0,-0.6729,-0.6729,-0.6729,-0.6729,-0.6728,-0.6706,-0.6706,-0.6706,-0.6654,-0.6653,-0.6652,-0.6651,-0.663,-0.663,-0.6631,0,0,0,0,0,0,0,0,0,0,0,0,0,-0.672,-0.6729,-0.6729,-0.67,-0.6697,-0.6707,-0.6706,-0.6706,-0.6655,-0.6653,-0.6651,-0.665,-0.663,-0.663,-0.6631,-0.6667,0,0,-0.6633,-0.6633,0,0,0,0,0,0,0,0,-0.6721,-0.672,-0.6705,-0.6702,-0.6699,-0.6681,-0.6698,-0.6693,-0.6655,-0.6671,-0.6651,-0.6649,-0.6649,-0.6648,-0.6647,-0.6666,-0.6665,-0.6633,-0.6633,-0.6634,-0.6634,0,0,0,0,0,0,0,-0.6721,-0.6721,-0.672,-0.6704,-0.6701,-0.6689,-0.6686,-0.6697,-0.6669,-0.6669,-0.6666,-0.6663,-0.6647,-0.6646,-0.6646,-0.6665,-0.6633,-0.6634,-0.6634,-0.6634,-0.6713,-0.6714,0,0,0,0,0,0,-0.6726,-0.6722,-0.6721,-0.6719,-0.6706,-0.669,-0.6686,-0.6689,-0.6669,-0.6664,-0.6665,-0.6661,-0.6646,-0.6645,-0.6645,-0.6686,-0.6634,-0.6634,-0.6635,-0.6711,-0.6713,-0.6715,0,0,0,0,0,0,-0.6726,-0.6726,-0.6722,-0.6719,-0.6718,-0.6692,-0.6694,-0.6689,-0.6689,-0.6665,-0.666,-0.667,-0.6645,-0.6644,-0.6662,-0.6684,-0.6635,-0.6635,-0.6709,-0.6712,-0.6714,-0.6768,0,0,0,0,0,0,-0.6726,-0.6727,-0.674,-0.672,-0.6718,-0.6739,-0.6696,-0.669,-0.669,-0.6685,-0.6668,-0.6664,-0.6643,-0.6661,-0.6663,-0.6684,-0.6636,-0.6707,-0.671,-0.6713,-0.6764,-0.6772,-0.6779,0,0,0,0,0,-0.6726,-0.6756,-0.6741,-0.6741,-0.6734,-0.674,-0.6739,-0.6714,-0.6692,-0.6705,-0.669,-0.6665,-0.6682,-0.6663,-0.6665,-0.6687,-0.6705,-0.6709,-0.6713,-0.6761,-0.6771,-0.6779,0,0,0,0,0,0,-0.678,-0.6753,-0.6736,-0.676,-0.6753,-0.6731,-0.6747,-0.6725,-0.6724,-0.6719,-0.6689,-0.6686,-0.6708,-0.6699,-0.6679,-0.6721,-0.6689,-0.6694,-0.6726,-0.6735,-0.6742,-0.6743,-0.6636,0,0,0,0,0,-0.6795,-0.6801,-0.6778,-0.6802,-0.6799,-0.6774,-0.6775,-0.6757,-0.6748,-0.6745,-0.6731,-0.6724,-0.6727,-0.6731,-0.6733,-0.6763,-0.6758,-0.6779,-0.6786,-0.6792,-0.6796,-0.6811,-0.682,-0.6727,-0.6727,-0.6727,0,0,-0.6825,-0.6811,-0.6818,-0.6812,-0.6804,-0.6812,-0.6771,-0.6781,-0.6787,-0.6746,-0.6762,-0.6752,-0.6742,-0.6766,-0.6776,-0.6759,-0.6821,-0.6797,-0.6802,-0.6803,-0.6816,-0.6825,-0.6833,-0.673,-0.6729,-0.6729,0,0,-0.6885,-0.6875,-0.6893,-0.6886,-0.6874,-0.6857,-0.6862,-0.6844,-0.6835,-0.685,-0.6819,-0.6826,-0.6833,-0.6827,-0.6825,-0.6882,-0.6859,-0.6884,-0.6922,-0.6937,-0.6945,-0.6951,-0.6971,-0.6978,-0.6888,-0.6888,-0.6888,0,-0.6924,-0.6934,-0.6906,-0.6918,-0.6916,-0.6879,-0.6898,-0.6892,-0.6882,-0.6882,-0.6864,-0.6871,-0.6862,-0.6884,-0.6898,-0.6898,-0.6902,-0.6885,-0.6946,-0.6952,-0.6957,-0.6976,-0.6984,-0.6891,-0.6891,-0.689,-0.689,0,-0.6983,-0.6991,-0.7007,-0.6997,-0.6998,-0.7013,-0.6988,-0.6992,-0.6973,-0.6958,-0.6974,-0.6961,-0.696,-0.6964,-0.6946,-0.6983,-0.6973,-0.6951,-0.6919,-0.697,-0.6987,-0.6994,-0.6895,-0.6894,-0.6893,-0.6893,0,0,-0.7076,-0.705,-0.7057,-0.7051,-0.7035,-0.7041,-0.7055,-0.7053,-0.7056,-0.7051,-0.7062,-0.7068,-0.7047,-0.7045,-0.7026,-0.7039,-0.7085,-0.7015,-0.7014,-0.7028,-0.7124,-0.7141,-0.715,-0.7069,-0.707,-0.7071,-0.7125,0,-0.7132,-0.7153,-0.7128,-0.7154,-0.7161,-0.7125,-0.7137,-0.7129,-0.7116,-0.712,-0.7105,-0.711,-0.7082,-0.708,-0.7091,-0.7077,-0.7103,-0.7072,-0.7079,-0.708,-0.7082,-0.7159,-0.7177,-0.7228,-0.7132,-0.7133,-0.7134,0,-0.7199,-0.7195,-0.7223,-0.7204,-0.7206,-0.7217,-0.7213,-0.7217,-0.7207,-0.7197,-0.7194,-0.7171,-0.7184,-0.7152,-0.7169,-0.7149,-0.715,-0.7143,-0.7144,-0.7144,-0.711,-0.716,-0.7244,-0.7252,-0.7144,-0.7143,-0.7142,0,-0.7264,-0.7266,-0.7282,-0.7279,-0.7258,-0.7267,-0.7259,-0.7247,-0.7247,-0.7244,-0.7244,-0.7243,-0.7242,-0.7242,-0.7219,-0.7198,-0.7239,-0.7206,-0.723,-0.7231,-0.724,-0.724,-0.7325,-0.7242,-0.7242,-0.7241,-0.7241,0,-0.7328,-0.7346,-0.7311,-0.7321,-0.734,-0.7311,-0.7331,-0.732,-0.7309,-0.7317,-0.7287,-0.7294,-0.7264,-0.7269,-0.7251,-0.7268,-0.7268,-0.726,-0.7255,-0.7262,-0.7263,-0.7262,-0.7258,-0.7243,-0.7243,-0.7243,-0.7242,0,-0.7403,-0.7381,-0.7396,-0.7375,-0.737,-0.7385,-0.7367,-0.7376,-0.736,-0.737,-0.7371,-0.7347,-0.735,-0.7328,-0.7328,-0.7316,-0.7341,-0.733,-0.7344,-0.7341,-0.7366,-0.7364,-0.7454,-0.7464,-0.7375,-0.7376,-0.7376,0,-0.7446,-0.7459,-0.7439,-0.7441,-0.7434,-0.7439,-0.7439,-0.7411,-0.7412,-0.7402,-0.7412,-0.7413,-0.7412,-0.742,-0.7403,-0.7403,-0.7392,-0.7423,-0.7391,-0.7398,-0.7392,-0.7391,-0.7392,-0.743,-0.7431,-0.7432,-0.7432,0,-0.7523,-0.7511,-0.7512,-0.7509,-0.7509,-0.7506,-0.75,-0.7504,-0.7474,-0.7477,-0.748,-0.748,-0.7479,-0.7481,-0.7477,-0.7469,-0.7446,-0.7442,-0.7448,-0.7456,-0.7463,-0.7459,-0.7362,-0.744,-0.744,-0.7439,-0.7439,-0.7438,-0.7583,-0.7593,-0.758,-0.7582,-0.7574,-0.757,-0.7577,-0.7562,-0.7564,-0.756,-0.7544,-0.755,-0.754,-0.7532,-0.7526,-0.7531,-0.7516,-0.7524,-0.7526,-0.7529,-0.7533,-0.7463,-0.753,-0.753,-0.753,-0.753,-0.753,0,-0.7659,-0.7649,-0.7651,-0.7643,-0.7645,-0.7622,-0.7615,-0.7617,-0.7623,-0.7615,-0.7615,-0.7618,-0.7619,-0.7602,-0.7601,-0.7608,-0.7598,-0.7609,-0.7608,-0.7607,-0.7547,-0.7542,-0.7618,-0.7618,-0.7618,-0.7618,-0.7618,-0.7618,-0.7699,-0.7713,-0.77,-0.7711,-0.7701,-0.7706,-0.7703,-0.7699,-0.7692,-0.7697,-0.7698,-0.7686,-0.7675,-0.7672,-0.7673,-0.7668,-0.7669,-0.7684,-0.7675,-0.7619,-0.7611,-0.7603,-0.7598,-0.7684,-0.7684,-0.7734,-0.7735,-0.7735]}]]